Wind_Speed
2 2 2 4 3 1 2 0 1 2 3 2 3 3 4 7 7 6 8 11 8 8 8 8 10 8 8 9 10 10 8 4 4 3 3 7 14 15 14 17 18 18 18 16 17 17 15 15 14 14 13 14 15 15 16 15 15 15 15 15 15 15 14 14 13 13 14 14 14 14 15 15 14 14 14 14 16 17 15 14 13 12 11 11 11 11 11 10 10 9 9 8 7 7 6 7 7
4 4 5 4 1 2 1 1 1 3 4 1 4 3 5 7 7 9 9 11 9 11 11 11 13 12 13 12 10 10 9 9 11 9 7 15 16 14 16 17 18 19 19 17 18 17 14 15 14 14 14 13 15 15 16 15 15 15 15 15 15 15 14 13 12 12 13 13 13 14 15 15 14 13 13 14 16 16 15 13 12 11 11 11 11 10 10 9 9 9 8 8 6 6 6 7 8
5 3 6 2 2 2 1 1 3 5 2 3 4 4 6 7 9 11 12 15 14 14 13 12 12 10 11 11 9 9 8 9 14 12 10 17 14 14 19 18 18 19 18 17 17 16 14 14 14 14 14 14 15 15 16 16 15 15 14 15 15 15 14 13 12 12 13 13 12 13 13 14 13 12 13 13 15 14 14 13 11 11 11 11 10 10 10 9 9 9 8 7 6 6 6 7 8
3 4 5 1 1 1 0 1 4 4 2 3 4 6 6 8 11 12 13 16 14 12 11 11 10 7 10 11 8 8 9 7 12 13 9 14 15 18 21 19 19 18 18 17 16 16 14 14 15 15 14 14 15 15 15 15 16 15 14 15 15 14 14 12 11 11 12 13 12 12 12 12 12 12 13 13 14 13 13 13 11 10 10 10 10 9 9 9 8 8 7 7 6 6 6 7 7
3 4 5 2 1 1 0 2 4 1 4 3 4 6 7 9 11 12 12 13 13 11 9 9 9 8 10 9 4 6 10 8 12 14 12 17 20 21 21 21 20 18 19 19 17 15 14 15 15 15 15 14 15 15 14 14 15 15 14 15 15 14 14 13 11 10 12 13 12 12 12 11 11 12 12 13 13 12 13 13 11 10 10 10 10 9 8 8 8 7 7 7 6 6 6 6 7
3 3 3 3 3 1 2 3 1 3 5 4 5 6 8 9 10 12 12 12 13 13 11 9 11 11 9 8 6 6 10 10 12 13 17 21 23 23 21 22 21 19 19 19 18 15 15 16 15 15 15 14 15 15 14 14 14 15 15 14 14 13 15 15 13 12 11 12 12 12 12 11 10 11 12 13 11 11 11 10 10 10 9 9 9 9 8 8 7 7 7 7 6 6 6 6 7
4 1 1 3 4 2 4 3 2 4 5 5 7 7 8 8 9 10 11 11 13 14 12 10 11 12 8 6 7 9 11 12 13 15 20 23 24 24 23 22 22 20 20 19 17 15 16 16 16 16 14 15 16 16 14 14 14 15 15 14 14 13 14 14 14 13 12 12 12 12 12 11 10 11 12 12 11 11 10 9 8 9 9 8 8 8 8 8 7 7 7 6 6 6 6 6 7
5 1 0 3 2 2 5 2 4 4 5 7 8 8 7 7 6 6 8 9 10 11 13 12 11 10 8 7 6 8 11 12 16 21 23 25 23 23 23 23 22 21 21 20 17 17 18 16 16 16 15 15 15 16 14 15 14 15 15 15 14 14 13 13 13 14 13 12 12 12 12 12 12 11 12 12 12 11 10 9 8 9 9 8 8 8 9 8 8 7 7 6 6 6 6 6 7
3 2 2 3 2 3 4 2 5 4 7 8 7 7 6 5 4 6 9 9 10 10 11 12 10 10 9 10 7 6 10 16 22 24 25 25 24 24 24 23 22 22 21 20 18 17 18 17 16 16 16 15 15 15 15 15 15 14 15 15 15 14 14 13 13 13 13 13 12 12 12 13 13 12 12 12 11 10 10 10 10 10 10 9 8 8 9 9 8 7 7 7 7 6 6 6 6
1 1 2 2 3 4 2 3 5 6 8 8 7 7 5 4 4 7 9 10 11 12 14 13 12 12 11 12 8 8 14 21 25 24 24 25 25 26 25 23 23 23 21 20 19 16 17 18 16 15 15 15 15 14 14 15 14 15 15 15 15 14 14 13 12 12 12 14 13 13 12 12 12 12 11 11 10 9 10 10 10 10 10 9 9 8 9 9 9 8 7 7 7 7 6 6 5
2 1 2 2 4 4 2 3 4 7 8 8 7 5 3 4 6 8 9 11 12 13 16 13 12 13 12 11 8 12 19 22 24 24 24 25 26 27 25 24 23 23 22 21 20 17 17 17 16 15 14 15 14 14 14 14 14 15 15 16 15 14 14 13 12 10 10 13 14 13 13 13 12 11 10 11 10 9 9 10 10 9 10 10 9 8 9 9 9 9 8 8 7 6 6 5 5
2 1 3 2 4 3 2 5 6 7 8 7 7 4 2 3 5 8 9 11 11 11 13 11 10 12 12 10 8 15 21 20 22 23 23 24 27 27 24 24 23 23 22 21 21 18 16 16 16 15 14 14 14 14 15 14 14 14 16 16 15 15 14 13 13 11 9 11 13 12 12 13 12 12 11 11 10 10 10 10 10 9 10 10 10 9 9 9 9 9 9 8 7 6 6 5 5
2 1 4 3 4 4 2 5 6 6 7 6 6 5 2 3 5 7 7 10 11 10 12 12 11 11 11 10 9 14 17 19 21 21 20 21 27 27 23 25 24 23 23 21 21 19 16 16 15 15 14 14 14 15 15 15 15 14 15 16 15 15 14 13 13 11 10 11 12 11 12 12 13 13 12 11 11 11 10 10 10 10 10 11 11 10 10 10 9 9 8 8 7 7 6 5 5
2 1 2 3 5 3 3 4 5 5 5 6 5 4 3 4 5 6 6 9 12 10 11 13 13 12 11 10 9 10 13 19 21 20 20 19 25 30 27 26 25 22 21 21 21 19 17 17 16 15 14 14 15 15 15 14 14 14 14 15 15 14 14 13 13 12 11 11 11 11 11 11 13 14 12 12 12 11 11 10 10 10 10 11 11 10 10 10 9 9 8 8 7 7 6 5 4
1 1 1 3 6 3 3 2 5 5 5 7 5 3 4 4 4 5 4 7 12 9 10 12 11 9 11 11 8 10 16 21 20 20 23 21 22 29 30 26 23 22 21 20 20 19 19 19 18 15 14 14 14 14 14 14 13 14 14 14 14 14 13 13 13 12 11 11 11 11 12 12 13 13 12 12 12 12 11 11 10 9 10 10 10 10 10 9 9 8 8 8 7 6 6 5 4
1 1 1 1 6 3 1 1 4 5 5 7 6 5 6 5 5 4 0 5 10 7 6 8 9 8 11 13 13 17 22 21 19 19 23 23 20 23 27 25 22 21 21 21 19 19 20 19 18 15 14 15 14 13 14 14 13 13 14 14 13 13 12 12 12 12 12 12 12 12 12 12 12 12 11 12 12 12 11 11 10 9 9 10 11 11 10 10 9 8 8 8 7 7 6 5 4
1 2 1 0 4 4 2 2 3 5 6 8 7 6 6 5 5 3 3 6 9 6 6 7 10 11 11 15 19 23 23 22 19 19 19 20 18 18 22 24 24 21 20 21 19 19 19 19 19 17 15 14 14 14 14 14 13 13 13 13 13 12 11 12 12 12 13 12 13 13 12 12 11 11 11 11 12 11 11 11 11 10 9 10 11 12 11 10 9 9 9 8 7 7 5 5 4
2 2 2 1 1 2 5 7 3 4 7 7 6 6 6 6 5 3 4 8 8 8 10 9 12 15 16 20 23 24 22 22 21 19 18 17 15 16 17 21 23 19 18 18 17 19 18 18 19 17 15 14 14 14 14 14 13 12 12 13 13 12 11 11 12 13 13 13 13 13 12 12 11 12 12 11 11 11 12 11 11 10 9 10 11 11 11 10 10 10 9 7 6 6 6 6 4
3 2 2 1 1 4 5 10 8 1 6 7 7 7 6 6 5 3 4 8 9 10 11 10 15 17 19 22 22 23 21 21 21 20 19 17 15 15 16 19 22 21 20 18 16 19 19 18 18 17 16 15 15 13 14 15 13 12 11 12 12 11 11 11 12 12 13 13 12 13 13 12 11 12 12 11 11 11 12 11 11 10 10 10 10 10 10 10 10 9 7 6 6 7 7 7 5
2 2 2 2 3 6 5 7 10 7 1 6 7 7 6 5 4 2 4 8 8 10 11 10 14 16 18 19 20 22 21 20 20 19 18 18 17 16 16 18 21 22 22 20 19 19 19 18 18 17 17 17 16 14 15 15 14 13 12 12 12 12 11 10 11 12 13 12 12 13 12 11 11 12 12 12 11 12 12 11 11 9 9 9 10 10 9 9 8 7 6 6 7 8 8 7 9
1 1 1 1 2 4 4 3 9 8 3 2 7 6 6 5 4 4 4 5 5 8 11 11 13 16 17 18 18 19 19 18 18 17 17 18 18 17 17 18 20 21 20 21 21 20 18 19 18 18 17 17 16 14 15 15 15 13 12 12 12 12 11 9 10 11 13 13 12 11 11 12 11 11 12 13 12 12 12 11 10 9 9 9 9 9 8 7 6 7 6 7 9 8 7 7 10
1 2 3 3 1 1 3 6 10 5 0 2 5 4 4 5 6 5 3 2 3 6 11 14 14 15 17 16 17 17 16 16 16 16 15 16 18 17 17 20 20 20 20 20 20 19 18 18 19 19 17 17 16 15 15 14 15 14 12 11 11 12 11 10 10 11 13 12 11 11 11 12 11 11 13 13 12 11 11 11 10 10 9 8 10 9 7 7 7 7 5 7 9 7 8 9 9
2 1 3 6 6 3 2 8 10 1 6 5 4 7 7 5 5 4 1 0 2 7 11 14 14 14 16 15 15 16 15 15 14 16 15 15 16 15 16 21 22 21 20 19 20 21 20 19 19 19 18 17 16 16 16 15 15 13 12 13 11 11 10 10 11 11 11 10 10 11 12 12 12 13 12 12 12 12 11 11 11 10 10 10 11 10 9 8 6 7 7 7 8 9 10 9 8
5 2 2 5 7 6 6 8 6 4 7 3 5 9 7 3 5 2 3 1 3 8 12 13 14 14 15 15 14 15 14 14 14 15 15 15 15 15 15 18 21 21 20 19 20 22 21 21 19 18 18 18 16 16 16 15 15 13 13 13 12 11 11 10 11 12 11 11 11 11 12 13 14 14 12 12 14 14 13 12 12 12 13 11 9 11 10 8 7 9 10 10 12 13 11 8 7
5 4 3 3 4 5 4 4 1 7 3 2 9 9 6 5 1 3 4 2 5 7 11 13 14 14 14 13 14 14 13 13 14 15 14 14 15 15 15 16 18 18 19 20 21 23 22 22 21 19 18 17 15 16 15 14 14 14 13 13 12 12 11 11 10 11 11 11 12 13 13 13 14 14 13 13 15 15 15 15 15 14 14 12 10 11 11 10 11 11 10 10 11 12 11 10 8
4 4 5 4 4 4 3 2 3 7 2 4 8 2 6 6 3 5 5 2 5 7 9 12 13 14 13 12 13 13 12 13 13 14 13 14 15 14 14 16 17 17 18 19 20 24 23 22 23 21 18 18 17 17 17 15 14 14 14 14 13 12 12 11 10 10 12 11 12 14 14 14 14 14 14 15 15 16 15 16 15 14 14 12 11 11 11 9 11 11 9 10 8 7 8 11 8
5 5 4 5 4 3 2 1 3 6 3 6 7 4 4 5 5 4 6 7 5 8 9 12 12 12 12 12 13 11 12 12 13 14 13 13 14 14 14 15 16 17 18 18 19 23 23 20 22 22 19 20 20 17 17 16 15 14 13 13 13 13 13 10 9 10 11 11 12 14 13 13 11 11 15 16 14 14 14 15 13 12 12 11 11 12 12 9 9 12 9 10 10 6 7 8 6
5 4 1 4 3 2 2 3 3 5 4 6 8 3 2 5 4 3 6 7 5 8 9 12 11 11 12 12 12 10 10 12 13 13 12 13 13 13 14 14 15 17 17 17 19 22 22 20 19 19 17 19 20 19 18 17 15 13 12 12 12 12 12 10 11 12 12 12 13 13 11 9 6 6 13 14 13 13 13 13 11 11 12 10 9 10 10 9 9 11 10 8 10 8 9 7 7
3 3 2 3 3 4 4 3 4 4 3 7 7 3 1 3 4 3 4 6 3 5 8 11 11 10 10 11 11 9 10 11 12 12 12 13 13 13 14 14 15 15 16 17 19 21 22 22 20 18 15 15 18 19 19 17 15 13 11 11 11 11 11 12 13 11 10 12 13 12 9 6 3 5 13 13 12 12 10 11 10 10 10 8 7 7 7 8 7 7 8 7 7 7 9 6 6
1 1 4 2 1 3 6 5 5 6 4 7 6 1 2 6 7 3 3 6 3 2 5 9 10 10 9 10 10 9 10 11 11 11 12 13 12 13 14 14 15 14 15 17 19 20 22 23 21 20 18 15 15 18 18 17 17 15 12 12 11 9 10 12 12 9 9 10 10 10 9 5 2 8 14 11 11 10 9 9 9 9 10 9 7 6 6 8 8 7 8 8 7 7 10 8 9
3 4 5 2 1 3 8 7 7 6 4 7 7 1 2 6 6 4 4 3 2 4 3 5 8 10 9 9 10 9 10 10 12 13 13 13 13 13 13 14 15 14 15 16 17 18 20 22 21 21 21 18 18 18 17 16 16 15 14 14 13 11 11 12 9 8 9 9 10 11 11 7 6 10 13 9 9 8 7 7 7 8 10 9 7 7 7 7 9 9 10 12 10 9 11 10 12
2 3 5 3 1 5 9 8 8 6 4 8 7 1 2 4 4 6 5 1 1 5 6 7 9 10 10 10 9 9 9 10 12 14 13 13 12 12 13 14 15 15 15 15 17 17 18 19 20 22 23 21 21 20 18 16 15 16 16 15 15 15 12 11 9 9 10 11 12 14 14 9 7 9 10 7 7 6 6 7 6 6 8 7 6 6 6 6 6 6 6 10 8 8 11 10 11
1 3 5 4 3 4 8 8 8 8 6 7 6 2 1 3 5 7 7 3 6 8 10 11 9 8 10 10 9 8 9 10 11 12 14 13 12 12 13 14 14 14 15 15 17 17 18 18 18 21 22 21 22 20 20 19 16 17 17 15 15 14 11 11 10 10 11 12 12 13 13 10 7 9 8 6 7 6 7 9 6 6 7 6 5 5 4 4 4 4 2 5 5 7 10 8 8
2 5 6 6 7 4 5 9 8 9 8 6 6 4 2 4 6 7 9 9 13 13 11 10 6 6 8 9 8 9 9 9 8 10 14 12 11 12 13 14 14 14 15 16 17 17 18 18 17 19 21 21 21 20 19 19 17 16 16 15 15 13 11 10 10 11 12 12 12 12 13 10 9 11 8 6 6 6 9 10 6 6 6 4 4 5 4 2 4 6 4 4 4 7 9 6 6
8 8 6 6 8 3 4 8 9 10 9 5 5 5 5 5 5 6 9 12 15 13 11 10 7 7 9 10 9 9 10 10 8 11 14 12 11 12 13 15 15 15 16 16 17 17 19 18 16 18 20 20 20 19 18 17 16 15 15 14 14 13 12 12 11 12 12 11 13 13 14 11 11 13 10 6 6 7 10 9 6 6 5 4 5 6 5 3 3 5 5 4 4 6 6 3 8
10 8 5 3 3 3 4 9 10 11 8 5 5 5 7 7 7 7 9 11 12 11 11 10 6 7 9 10 9 9 10 10 10 13 15 13 14 14 13 15 15 14 14 16 17 17 20 18 17 18 19 21 20 18 18 16 16 15 14 13 13 12 13 14 13 12 12 11 12 14 15 12 12 14 11 7 6 5 7 6 7 8 4 3 6 6 5 4 1 2 2 4 5 4 3 2 6
9 6 4 3 3 3 3 9 11 9 5 4 8 6 8 9 10 10 11 14 13 11 12 10 8 9 9 10 12 11 10 10 11 14 15 14 15 14 14 14 15 14 13 16 18 17 19 18 18 18 19 22 20 18 17 16 16 15 14 13 13 12 11 14 15 13 13 12 11 14 15 13 12 13 11 9 5 3 6 6 8 9 4 4 5 6 6 3 1 2 2 6 7 8 7 5 6
8 6 4 4 6 3 4 5 7 5 2 5 10 8 8 10 10 10 11 13 13 11 12 12 12 11 9 10 14 13 10 10 12 13 14 15 15 15 15 14 15 16 15 16 18 18 19 19 19 18 18 21 18 17 18 15 15 14 13 12 12 12 11 12 15 14 13 12 13 15 15 13 12 12 11 10 6 4 6 7 8 8 5 5 4 5 5 1 3 3 3 7 7 8 6 3 5
4 5 4 5 5 2 6 6 6 5 1 3 7 7 9 11 10 11 11 10 12 13 13 12 12 12 10 9 11 14 12 11 13 14 15 17 17 17 16 15 15 16 16 17 17 18 18 18 22 20 18 21 18 17 18 14 14 13 11 11 12 13 11 11 14 14 13 13 13 15 15 14 13 13 12 11 8 5 6 7 7 8 7 6 4 4 4 3 5 5 5 8 7 4 3 1 2
6 6 5 4 5 6 5 8 7 6 4 2 3 4 7 12 11 11 11 9 9 14 16 14 12 11 10 10 11 14 13 13 14 13 15 18 18 17 16 16 16 16 16 17 18 19 18 17 22 22 19 19 19 19 18 14 12 13 12 11 13 15 12 12 14 14 14 14 14 14 15 16 15 13 12 11 10 7 6 7 8 8 7 7 5 4 4 5 6 6 6 6 5 2 0 1 2
9 9 7 5 7 10 4 9 8 8 8 5 4 6 4 12 12 10 10 9 7 9 13 14 13 12 11 12 14 15 14 14 14 14 14 15 15 16 17 17 17 17 16 17 18 18 18 17 20 21 19 19 19 21 19 15 14 15 13 11 12 13 12 13 15 15 15 16 16 14 15 17 17 14 13 12 11 10 9 8 8 7 6 6 6 5 5 6 7 7 5 3 4 3 2 3 1
10 11 9 6 11 12 9 14 9 6 5 6 4 5 2 11 14 11 9 10 10 9 9 11 11 13 14 13 12 14 13 13 13 14 14 13 14 17 18 17 18 17 17 17 18 18 17 18 20 20 19 18 19 21 21 18 17 17 15 14 13 12 13 15 16 16 16 17 16 15 15 17 17 14 13 13 13 12 10 8 7 7 7 7 6 6 6 6 6 5 4 3 4 2 1 1 3
7 5 6 11 14 12 7 9 7 3 2 7 6 5 2 5 11 14 12 12 12 10 11 12 10 11 13 10 10 13 13 12 13 13 13 13 16 18 17 17 18 17 17 16 15 16 17 17 19 20 19 18 20 23 24 21 19 18 17 16 14 12 14 15 16 16 16 16 16 17 17 16 16 14 13 14 13 13 12 10 10 8 8 8 6 6 6 4 4 5 5 2 1 1 1 1 3
5 3 8 13 13 7 8 10 8 3 1 5 9 6 4 2 7 14 14 13 13 12 13 13 12 13 12 10 11 13 12 12 13 13 14 14 17 19 19 19 18 16 15 14 13 15 17 18 19 21 19 19 22 24 25 23 21 21 20 17 13 12 14 14 15 16 17 16 17 18 18 16 16 15 14 14 13 14 13 11 12 10 8 7 7 8 5 4 4 5 6 3 2 2 2 3 4
8 7 8 10 4 2 8 10 5 4 4 5 5 5 4 3 5 13 15 13 13 14 14 13 12 13 13 13 13 13 13 14 15 15 15 16 18 19 20 19 17 17 16 16 15 15 16 18 19 21 20 19 21 23 24 23 23 23 22 20 16 12 14 15 14 17 18 18 18 19 20 17 16 16 15 14 13 14 14 13 12 12 11 8 8 9 5 5 6 5 6 5 1 3 3 5 6
13 10 2 7 8 5 7 7 5 6 6 4 3 1 3 4 3 9 12 9 7 9 12 11 11 11 11 13 13 14 14 15 15 15 15 17 19 19 20 18 15 15 16 15 16 16 16 18 19 20 21 19 19 21 23 23 23 23 23 23 19 14 15 16 14 16 15 17 18 18 20 20 18 17 15 15 15 14 14 14 13 12 12 9 9 9 6 4 5 5 5 5 4 6 6 7 8
12 9 3 5 9 6 7 5 4 6 5 5 5 5 5 4 4 5 5 7 8 9 10 10 10 11 10 11 11 15 15 14 14 15 16 18 21 20 19 18 13 12 16 16 15 16 17 19 20 21 20 20 18 19 21 23 25 25 24 26 23 17 18 17 14 16 15 15 19 17 17 20 18 18 17 16 17 15 13 15 14 13 12 11 10 9 8 5 5 6 6 6 7 8 8 8 9
7 6 4 7 6 5 6 3 3 6 4 5 8 7 6 3 4 3 3 9 11 8 9 10 9 10 10 10 10 11 13 15 15 14 14 15 18 20 20 18 13 12 16 16 13 14 16 18 21 21 19 20 21 20 20 20 24 26 25 26 25 20 21 20 16 17 17 16 20 18 16 18 17 17 18 18 18 16 15 16 15 14 14 13 12 10 8 8 7 7 7 8 9 10 9 9 11
6 5 5 7 4 3 4 3 4 6 5 7 8 6 3 3 5 3 4 10 12 7 6 12 11 9 9 11 10 9 9 11 14 12 11 14 14 16 17 18 15 14 16 16 12 13 17 19 21 22 20 19 22 23 21 18 19 22 22 23 24 23 23 22 19 19 17 16 19 19 18 19 18 17 17 19 20 18 18 18 16 16 16 15 14 12 11 12 10 7 7 7 10 11 11 11 11
8 6 6 7 4 3 4 4 4 5 6 8 5 1 3 5 3 3 8 9 8 9 8 10 9 5 5 7 9 11 8 6 9 9 8 11 13 14 16 17 16 15 17 18 15 15 18 19 20 22 21 19 21 25 24 20 19 20 20 21 25 26 24 23 22 21 18 16 17 19 18 19 20 18 16 17 19 19 19 19 18 17 17 17 15 15 15 15 11 9 9 9 10 11 11 11 12
9 8 8 8 5 4 4 4 4 5 3 2 0 3 3 4 1 6 11 8 6 9 11 11 7 4 3 5 7 11 10 7 9 10 8 11 14 17 16 16 16 14 17 21 19 18 19 19 20 24 23 19 20 24 24 23 22 21 21 24 26 27 25 24 24 22 19 17 18 19 17 18 19 19 17 16 18 19 19 19 19 18 18 18 17 16 17 15 12 11 12 12 12 11 11 11 12
8 8 8 9 6 4 5 7 7 6 3 2 3 5 3 3 6 7 7 7 7 8 8 12 11 8 7 7 6 6 10 12 12 8 6 10 14 18 17 17 17 15 16 21 18 16 20 19 19 23 24 20 20 22 22 22 22 20 21 25 25 26 27 25 24 23 20 18 18 19 19 19 19 20 20 19 19 19 19 18 18 18 19 19 18 17 17 16 14 13 13 14 13 11 12 12 13
5 7 9 9 8 6 7 8 7 7 6 3 3 5 4 5 7 7 5 5 7 6 6 8 10 7 6 6 5 4 6 9 10 6 4 7 11 16 17 16 18 17 16 19 16 15 20 21 21 21 21 22 22 21 21 22 23 22 21 23 24 25 27 27 25 23 21 19 18 18 19 21 22 21 21 21 20 20 20 20 19 18 20 20 19 18 18 17 17 16 16 16 15 14 13 14 13
5 6 8 8 8 8 7 5 3 4 5 2 2 3 4 3 4 6 5 5 6 6 6 6 6 6 5 5 3 2 3 3 10 10 5 5 9 14 16 13 16 18 18 20 18 17 19 21 22 21 21 24 23 21 20 21 24 25 24 25 26 26 26 27 26 24 21 20 19 19 19 21 22 22 21 21 21 22 23 23 21 21 22 22 21 20 19 19 18 18 18 17 17 16 15 15 14
13 7 6 8 7 6 5 4 3 4 5 3 5 6 4 2 1 5 6 6 7 7 5 4 4 3 2 1 3 3 3 3 7 10 9 6 8 14 16 14 17 18 17 20 20 17 18 20 20 21 21 21 21 19 18 19 22 23 23 25 26 26 25 25 25 23 20 21 21 20 20 21 22 23 22 21 21 21 23 23 22 22 22 23 22 21 21 21 20 20 19 17 17 16 16 15 14
15 11 7 6 5 4 4 4 4 6 5 4 5 5 1 5 3 2 4 6 7 7 4 3 5 5 5 2 3 3 2 1 5 10 10 9 11 16 19 19 21 19 15 18 20 17 19 19 19 20 19 19 20 19 18 17 19 20 20 20 20 20 20 21 22 21 20 21 21 21 22 22 22 23 23 22 20 20 21 22 22 21 21 21 21 21 21 21 22 21 19 17 16 16 18 18 16
11 9 7 6 4 5 5 4 5 6 5 4 3 1 2 3 1 1 6 8 7 6 4 3 8 8 2 4 3 4 1 1 5 8 9 10 13 17 19 19 21 20 16 17 18 17 17 17 18 20 19 19 20 20 18 17 17 19 20 20 21 21 21 21 22 22 22 23 23 23 24 23 22 22 23 23 22 20 19 19 21 22 21 20 20 21 20 20 21 21 20 18 17 17 18 18 17
10 9 7 7 6 5 5 4 5 5 5 4 2 1 1 4 4 4 7 6 5 4 3 4 8 7 4 1 4 4 1 1 5 8 8 8 10 14 17 19 20 19 17 17 17 16 16 16 17 18 18 18 19 18 17 16 16 16 18 21 23 23 23 24 24 24 25 25 24 23 24 23 23 22 21 21 22 22 20 20 20 22 23 22 21 22 22 20 19 20 20 18 17 17 16 14 14
Wind_Direction
175 189 233 259 260 14 57 113 231 193 207 243 86 88 95 96 99 100 99 104 101 100 102 100 100 93 100 93 95 84 49 53 71 92 115 126 138 139 136 131 130 128 128 132 132 127 123 126 124 123 120 119 120 120 120 120 122 122 121 122 123 122 123 122 121 123 123 124 127 128 128 133 134 129 128 126 125 123 121 117 116 120 121 120 120 119 120 121 121 120 118 117 118 116 106 96 94
216 216 243 253 213 83 45 289 286 226 213 100 81 79 90 103 102 95 95 98 102 112 105 94 95 98 101 99 99 87 60 57 81 91 104 126 132 133 135 132 131 129 131 135 133 128 126 128 126 125 124 124 123 123 123 120 121 121 121 123 123 122 124 125 125 126 124 124 126 127 130 133 129 126 128 129 128 124 120 115 117 121 120 120 119 121 123 125 125 123 122 122 123 117 107 99 96
236 262 263 256 88 111 189 214 263 247 193 90 97 91 89 95 89 90 96 96 101 109 106 98 92 96 103 96 81 79 80 75 98 106 113 131 132 136 139 134 132 130 129 133 132 129 130 132 131 130 128 126 126 128 129 125 121 118 119 121 124 125 126 130 133 132 128 127 127 126 129 131 127 124 128 133 131 126 122 120 121 122 123 124 125 126 127 129 129 127 128 129 127 119 110 103 101
230 287 264 213 76 234 236 158 258 254 111 95 96 92 90 93 97 96 97 100 107 110 106 105 88 75 88 91 83 84 100 95 107 112 126 140 136 141 141 135 132 127 128 130 130 131 135 139 137 133 130 128 126 128 129 126 122 119 119 120 124 126 128 132 134 134 131 130 130 130 130 130 131 130 132 134 132 128 126 126 128 128 128 128 130 132 130 131 130 131 131 131 127 119 113 108 105
240 259 227 188 205 205 346 268 263 228 88 94 92 95 97 96 106 104 102 106 112 111 104 108 99 89 86 89 96 97 111 117 115 117 127 135 137 142 139 136 132 126 129 128 129 135 140 140 136 132 131 129 125 124 127 124 122 121 120 120 124 126 127 128 129 134 133 133 134 133 133 133 136 137 135 136 135 131 128 129 133 134 133 132 134 133 131 133 132 133 133 132 130 123 119 116 110
250 268 234 248 252 219 247 260 280 83 79 91 101 96 94 97 107 108 109 105 104 106 104 107 110 109 89 77 84 102 124 126 123 127 130 135 143 142 139 140 133 124 124 127 131 137 140 137 132 133 133 129 122 124 129 126 124 123 121 120 123 125 125 124 127 131 133 137 137 136 136 137 140 139 138 140 140 137 132 129 134 135 133 137 140 137 136 137 136 138 139 137 135 131 126 121 116
226 26 33 265 243 220 255 246 84 82 82 88 103 97 91 97 103 111 116 109 104 109 114 114 117 112 94 96 87 89 116 127 130 135 133 138 144 137 135 136 130 125 124 129 136 135 135 132 130 133 131 125 122 125 129 127 125 125 124 122 123 124 123 125 128 131 136 140 138 137 138 139 140 139 139 141 143 145 138 131 136 137 135 141 146 145 142 140 144 147 146 144 140 136 132 123 119
248 247 160 256 239 208 263 243 86 78 87 84 89 92 88 87 92 108 111 105 103 112 120 117 112 100 99 120 101 89 114 128 130 132 134 137 139 131 129 130 127 130 128 130 137 134 132 131 132 130 125 123 124 127 129 127 126 127 127 126 126 126 125 128 131 133 137 141 136 136 138 138 137 138 140 140 143 148 144 140 145 144 144 147 148 151 149 146 151 151 151 151 146 141 137 129 123
276 259 235 259 270 246 257 119 96 88 94 92 89 87 82 78 93 116 108 103 103 109 112 112 109 104 112 114 116 136 126 127 128 131 136 139 140 133 129 128 128 132 130 129 132 131 131 133 134 129 126 126 125 126 128 129 129 129 127 127 128 127 128 130 134 136 136 138 134 135 138 135 134 135 138 138 142 148 149 150 152 149 150 152 149 152 152 150 154 154 158 159 156 149 140 134 131
248 233 266 282 279 260 240 104 104 101 97 97 97 93 94 96 89 97 102 103 104 106 103 103 107 115 125 112 116 144 130 131 131 134 141 140 141 138 131 127 130 133 132 130 130 131 133 133 132 130 128 127 124 124 126 126 127 129 127 127 127 127 128 130 135 137 136 134 132 135 136 132 131 132 135 138 142 150 152 152 154 152 153 152 146 149 153 154 159 159 163 168 162 152 142 138 137
257 189 259 275 272 258 170 129 117 104 101 101 96 86 89 106 100 102 106 103 102 107 109 110 112 117 121 109 112 130 135 140 137 140 146 139 135 135 132 129 131 132 132 131 130 132 132 131 131 131 128 126 125 124 123 123 126 129 128 127 127 127 127 129 132 134 134 130 130 134 134 132 132 131 135 138 141 147 146 147 149 150 151 149 147 154 157 157 162 164 167 167 158 150 145 139 137
286 247 270 256 273 277 142 132 122 111 114 111 105 99 72 83 103 113 111 108 112 113 115 118 121 124 116 106 117 130 138 143 137 140 142 135 127 129 130 130 132 131 131 131 130 133 132 131 132 132 129 126 123 120 120 122 124 125 127 128 128 127 127 130 129 131 131 127 130 134 133 134 136 136 137 138 139 141 141 144 146 145 148 150 155 160 159 162 167 168 168 163 157 153 147 139 137
291 293 292 272 287 280 145 116 122 128 124 109 103 103 78 73 76 90 95 103 113 113 112 111 114 119 113 113 125 130 138 139 136 137 135 129 124 126 131 131 131 130 131 131 132 134 134 135 133 133 131 126 122 119 118 119 120 121 124 127 127 127 128 131 131 133 135 132 133 133 132 137 143 141 138 140 140 142 143 145 146 147 150 156 162 161 161 166 168 168 167 162 158 154 146 140 142
284 335 313 297 304 257 151 117 141 136 110 107 112 104 86 86 71 79 94 102 102 103 110 116 122 118 113 122 130 133 139 139 137 134 128 126 125 127 133 133 129 130 131 133 135 135 137 139 136 134 132 126 123 123 122 118 118 120 122 123 124 126 128 130 133 135 137 136 133 133 133 135 142 141 140 141 141 144 145 144 147 149 153 159 162 161 163 164 164 166 165 162 157 152 148 148 157
279 69 304 298 310 261 149 128 147 126 112 124 131 131 114 100 80 80 81 98 100 108 119 123 128 128 131 137 144 142 139 142 142 137 132 133 130 129 133 132 129 132 134 134 137 138 139 140 138 134 135 131 126 128 129 126 121 120 121 122 122 125 128 130 134 137 138 138 140 141 136 131 135 139 141 142 142 144 144 145 148 151 154 158 160 161 164 163 164 165 163 164 157 155 158 163 164
3 244 291 319 316 308 175 217 145 123 122 130 138 149 126 101 88 92 346 102 106 125 131 121 122 131 142 138 141 141 139 144 145 139 132 130 131 130 130 130 129 132 135 137 139 141 141 141 140 139 141 137 132 133 130 129 127 123 121 120 122 124 126 129 135 141 139 140 144 141 136 134 135 139 142 143 143 143 144 148 149 152 156 160 162 162 165 166 165 166 167 167 165 168 166 161 156
312 257 280 84 318 329 322 293 142 130 124 132 144 142 120 104 101 141 196 115 114 123 93 95 113 124 134 131 136 139 141 146 142 137 130 126 135 134 127 128 130 130 135 141 142 142 143 144 145 143 140 138 134 132 130 131 130 127 125 123 122 124 128 130 134 136 133 134 135 135 136 137 138 142 144 144 144 145 147 151 151 152 154 158 161 161 166 169 168 170 172 171 171 169 157 149 147
254 247 255 209 319 322 329 344 13 136 134 135 137 130 123 123 130 181 178 115 114 107 86 88 103 111 123 129 136 140 144 145 142 142 138 135 142 138 130 127 129 133 139 143 144 143 143 145 146 143 140 141 137 134 135 135 134 133 131 128 126 128 132 133 134 132 130 132 133 137 139 138 145 148 146 147 147 151 153 152 154 153 152 156 159 161 164 168 170 175 174 172 168 158 157 158 150
231 235 222 138 344 297 334 350 333 266 131 134 138 137 130 136 143 173 163 125 119 108 101 105 105 111 123 131 139 141 147 148 147 149 144 144 147 141 137 130 129 140 145 141 143 143 144 147 147 146 146 147 142 139 140 139 139 140 140 138 134 134 136 139 142 137 137 140 140 142 140 140 150 150 148 152 154 156 154 150 154 157 157 159 163 165 166 171 175 178 173 167 162 163 174 172 179
256 268 208 81 332 298 357 2 300 291 118 138 136 130 123 130 138 136 137 122 117 116 120 123 118 125 130 135 143 146 150 151 151 152 147 149 149 142 141 136 134 144 148 145 147 148 149 149 148 149 150 150 144 142 145 144 145 146 148 147 142 144 146 151 152 145 144 142 143 146 144 145 151 151 148 154 160 158 153 154 159 163 164 163 168 170 172 176 174 173 169 170 172 176 187 182 196
271 8 173 45 341 304 2 347 267 274 292 152 123 125 125 107 94 109 120 109 116 127 132 132 129 134 137 141 146 151 153 151 154 153 150 153 150 147 147 143 138 143 148 146 150 154 152 149 149 149 148 147 143 143 147 146 147 147 147 149 152 153 155 160 156 149 146 144 147 151 150 149 152 155 152 155 161 160 158 162 167 168 169 169 170 170 171 178 173 167 174 181 179 179 202 223 212
66 92 150 174 160 293 309 275 252 230 355 58 90 70 61 73 73 79 88 96 127 128 128 132 136 139 141 147 148 152 153 153 157 152 154 157 150 151 150 143 138 141 144 145 150 154 152 151 150 148 148 146 144 147 150 151 151 151 154 162 162 158 162 168 162 155 151 150 153 155 154 151 154 160 160 159 161 167 169 170 175 173 176 179 170 169 179 188 176 171 190 188 186 200 227 246 219
91 161 177 192 185 190 232 256 261 182 68 38 41 34 35 64 66 41 58 184 108 118 126 133 141 144 144 149 151 153 154 157 160 154 159 160 149 152 152 142 140 143 147 148 151 151 150 152 151 150 150 150 152 152 153 157 157 157 163 168 165 163 174 175 166 163 163 165 166 164 160 157 162 165 163 163 164 171 177 178 180 179 186 189 171 172 191 195 178 185 214 211 216 231 226 226 204
136 176 198 198 193 208 198 220 262 57 69 26 29 38 22 45 76 345 264 173 98 118 129 136 142 146 147 152 154 153 156 160 159 156 159 157 151 155 153 143 143 146 147 149 150 150 150 153 156 156 153 154 157 153 152 158 159 160 163 166 170 168 173 179 171 166 173 182 182 178 167 164 172 173 167 172 175 175 182 182 181 184 189 192 177 177 190 197 193 197 216 226 235 231 207 195 197
148 150 167 205 204 235 234 224 80 73 73 41 49 37 329 307 92 236 247 135 113 122 133 139 146 149 151 156 156 154 160 162 157 157 159 156 155 157 153 144 144 146 148 150 150 151 151 154 160 159 155 157 160 156 157 162 161 163 167 170 174 169 171 182 178 172 177 183 186 187 181 177 177 177 175 177 178 179 184 182 182 187 185 190 192 184 185 202 211 200 209 225 236 236 200 181 201
120 122 156 205 212 229 248 254 97 95 97 85 75 54 258 288 285 220 242 229 136 142 149 144 151 154 155 159 156 156 162 162 158 158 161 157 156 158 154 148 148 149 151 154 150 150 152 156 160 158 158 162 162 162 162 165 166 166 172 173 171 173 178 180 181 180 180 183 187 189 192 191 181 179 180 179 178 180 186 185 184 183 174 184 192 182 183 203 211 193 203 221 220 248 209 176 198
119 112 154 198 212 227 196 182 116 117 123 120 129 191 245 318 312 220 240 255 157 153 163 151 159 158 158 161 154 163 165 161 163 161 160 156 156 161 157 153 154 151 154 155 148 148 151 154 155 156 163 163 160 162 160 164 171 169 166 168 170 173 174 175 187 192 187 187 187 191 198 201 200 188 177 176 176 175 181 183 181 173 166 185 194 184 187 200 202 185 195 215 199 226 235 187 194
107 86 182 193 191 244 189 174 152 138 131 133 134 138 310 331 306 230 235 246 176 168 172 158 166 161 162 163 155 166 165 163 166 162 164 159 160 166 161 158 156 152 155 154 145 145 150 152 153 156 165 164 158 158 158 160 169 172 160 161 174 175 171 177 194 202 194 184 182 193 201 204 230 196 166 166 168 170 175 176 174 165 162 181 195 184 187 199 204 192 189 205 197 205 243 227 201
108 90 254 197 184 240 202 185 178 161 147 154 142 83 328 275 253 240 238 240 206 186 182 166 168 164 167 161 156 169 163 167 169 165 168 162 165 169 164 163 157 154 157 151 148 151 153 154 156 158 164 166 160 156 157 157 163 173 165 167 183 178 174 184 196 201 175 164 177 192 199 207 240 166 157 159 166 171 171 168 162 161 164 171 183 177 181 198 210 207 197 216 220 206 232 236 204
63 238 265 210 203 227 179 180 190 173 147 166 173 2 270 233 232 230 217 222 248 263 201 181 173 166 173 164 161 173 164 169 172 170 170 164 169 172 166 164 159 157 155 151 154 157 153 153 156 158 162 166 161 155 156 162 166 173 173 177 188 177 180 196 200 186 149 150 175 187 193 197 139 146 157 161 168 169 165 163 155 164 169 163 181 185 180 198 208 216 210 218 228 217 224 216 213
341 315 285 216 183 178 163 173 188 172 152 181 191 231 243 224 211 192 198 213 261 260 228 207 192 170 171 169 166 173 168 173 175 172 171 167 172 174 169 166 163 158 156 156 158 157 153 153 155 157 160 163 162 160 162 167 166 169 175 179 186 184 193 207 200 172 162 168 177 183 187 164 105 142 158 160 168 167 165 159 155 175 172 163 186 184 183 207 216 228 217 203 205 222 228 216 226
355 328 294 284 240 162 157 169 184 174 169 190 201 209 184 206 189 165 168 172 228 248 278 255 210 178 170 174 172 171 168 174 178 173 168 169 174 175 171 167 165 160 161 163 158 158 154 153 155 156 159 161 161 163 164 168 165 166 176 179 183 186 197 205 189 175 178 181 184 187 182 157 125 151 159 166 178 174 168 152 152 182 173 170 181 176 194 205 216 256 227 203 209 236 232 217 231
280 247 272 297 273 179 152 168 180 167 161 181 210 247 117 209 205 155 144 180 191 201 245 240 210 189 176 172 168 166 173 177 180 170 164 171 175 175 173 169 169 163 164 165 159 159 152 151 158 157 159 159 159 163 163 166 167 169 176 176 179 186 196 195 179 177 179 177 183 185 177 164 156 165 166 183 191 185 168 149 146 175 174 182 184 188 223 199 217 274 237 232 254 252 244 229 229
235 238 254 235 242 262 140 167 181 170 166 176 202 211 188 191 196 169 152 193 201 191 219 228 217 220 188 169 164 169 177 172 174 168 166 172 172 177 175 168 174 169 168 167 163 161 152 155 163 157 157 158 159 163 163 165 167 170 173 174 180 186 191 183 169 171 172 170 175 180 178 173 175 177 174 185 194 188 166 149 146 171 182 209 203 195 219 216 255 261 231 256 275 269 278 290 286
214 225 244 227 224 249 122 156 177 179 177 183 201 191 188 176 180 195 165 185 205 191 204 217 212 219 194 170 164 177 179 164 171 175 171 170 168 186 183 168 176 175 169 167 164 161 154 157 161 157 158 158 159 161 163 165 165 169 174 173 179 188 187 175 167 168 168 171 176 183 182 177 186 183 174 171 170 172 169 165 175 174 172 208 198 187 195 192 264 271 236 231 248 290 311 327 323
220 229 249 281 222 212 137 141 163 184 177 180 225 186 175 180 184 204 167 173 209 195 192 207 209 219 204 176 158 181 182 159 172 175 171 175 176 189 185 174 180 175 168 166 165 160 154 158 159 158 160 157 156 160 166 169 166 172 177 172 175 191 190 167 163 168 169 175 175 178 180 179 190 186 175 166 154 165 171 168 176 167 158 196 197 197 188 171 215 284 252 246 238 254 284 260 300
232 261 270 290 260 236 142 127 148 184 184 203 239 202 167 178 186 194 168 170 197 194 187 196 208 214 210 189 164 177 184 164 179 178 174 183 182 186 183 181 183 174 173 169 165 160 155 158 158 156 159 157 156 161 169 173 169 173 178 174 172 190 194 165 163 171 170 177 177 176 178 177 187 188 180 174 167 181 170 152 158 158 164 202 200 207 189 162 256 242 261 269 243 222 243 278 301
227 256 253 250 247 204 128 114 130 166 227 220 223 212 185 184 181 179 171 173 181 189 193 193 206 210 214 203 166 166 182 172 180 180 181 189 186 189 183 183 185 178 180 173 168 168 162 163 163 160 162 162 160 163 172 176 172 174 178 177 174 183 193 170 166 175 173 176 178 178 178 177 185 187 182 181 182 182 170 157 153 155 165 184 187 188 179 196 249 229 253 257 246 223 233 313 333
277 273 248 258 269 184 148 162 155 152 249 217 204 209 191 183 179 172 179 187 176 183 195 193 205 204 208 215 172 169 179 176 185 179 183 193 188 191 183 178 190 187 183 179 174 175 173 168 164 165 166 165 164 167 174 177 171 174 177 181 180 178 187 180 171 176 178 174 174 177 179 179 185 185 184 184 180 183 177 153 149 165 167 170 184 180 178 231 232 235 249 248 262 235 183 4 21
278 266 254 254 252 250 200 166 158 165 199 246 272 259 182 173 178 171 180 192 174 180 190 192 201 198 206 218 190 181 175 173 191 180 183 196 187 190 188 179 192 193 186 186 180 177 179 172 164 169 171 166 168 172 173 176 176 178 179 186 187 177 182 188 177 178 182 174 171 177 181 184 184 182 187 185 179 190 188 161 166 181 163 161 194 211 216 234 235 246 246 242 276 287 108 321 142
254 237 246 271 255 259 225 146 159 186 195 193 247 268 181 165 174 168 173 186 182 187 192 194 195 186 203 212 189 184 177 172 189 185 189 197 183 192 197 181 186 195 193 191 185 181 182 175 167 170 174 168 170 172 171 174 178 177 174 179 189 185 189 194 182 182 185 174 174 181 185 189 183 181 190 186 182 194 188 166 175 185 166 172 202 219 233 241 240 246 249 261 277 262 305 316 242
254 225 206 228 258 252 163 146 172 209 202 172 209 280 181 161 172 170 167 178 184 189 198 206 201 188 197 202 183 183 184 174 188 192 187 189 187 198 203 185 183 196 198 194 191 187 181 175 170 169 174 170 167 170 173 176 173 173 173 168 175 183 192 197 186 186 187 176 179 187 185 187 185 185 192 189 190 194 181 164 171 179 185 196 212 222 229 241 245 247 249 275 282 248 115 342 280
263 256 207 203 235 249 183 180 225 252 165 159 187 271 270 166 167 168 169 180 185 185 199 204 204 204 198 186 173 183 191 183 190 197 187 191 195 195 202 197 188 195 199 193 195 190 178 175 172 170 173 169 168 174 179 181 173 176 183 172 172 181 188 197 189 187 191 181 182 187 183 185 188 189 188 190 199 191 178 180 181 179 190 201 215 221 220 223 227 240 226 183 24 235 133 266 260
245 270 271 230 214 238 253 257 275 319 24 172 193 223 273 297 154 162 170 182 186 188 202 201 198 207 199 187 184 183 191 190 190 196 190 198 201 190 196 203 192 191 194 188 194 190 177 176 173 171 172 170 178 182 181 185 181 181 186 179 179 185 187 197 192 189 195 190 186 184 180 181 189 193 188 190 198 185 178 192 195 195 197 201 213 213 225 251 238 237 214 161 90 188 238 278 263
257 234 272 275 251 248 263 269 287 283 266 233 209 195 243 283 162 167 174 183 192 192 196 197 200 203 191 193 194 179 189 196 194 198 192 198 205 192 193 200 193 191 189 181 187 188 179 177 172 171 170 169 185 188 181 189 190 185 187 184 187 192 191 198 200 200 198 192 191 183 178 181 187 195 196 192 191 183 185 196 201 204 203 208 220 212 228 264 243 225 198 186 205 209 225 260 258
253 252 315 321 309 310 274 272 284 270 258 268 291 197 249 275 206 190 186 180 179 181 188 191 198 204 199 200 187 172 193 207 201 199 192 195 201 194 192 197 196 192 182 174 182 185 181 179 171 171 172 169 184 190 183 188 191 190 190 187 190 194 197 199 201 210 205 191 193 186 178 182 185 190 198 197 189 186 197 201 200 202 203 214 223 213 222 230 205 202 195 195 225 227 226 240 248
249 273 343 281 264 261 256 262 305 299 281 271 259 223 228 257 248 232 195 154 138 154 177 181 192 201 207 218 196 176 190 200 200 203 196 192 194 193 193 194 190 181 170 171 187 185 176 176 171 172 174 165 171 186 187 186 189 194 195 192 193 194 201 202 193 208 216 196 192 192 182 185 188 187 191 196 193 192 200 201 201 201 202 215 218 214 222 215 205 218 214 211 223 230 233 239 252
253 272 279 252 237 228 246 246 272 269 262 284 279 244 225 246 268 262 145 130 129 144 166 165 194 214 204 220 223 200 191 184 192 207 190 180 192 195 189 181 171 160 161 172 192 178 163 168 169 172 176 162 159 180 195 191 186 190 194 194 196 197 204 205 194 202 217 201 190 194 192 188 192 192 191 195 195 194 199 200 201 202 205 214 212 211 222 223 229 235 229 228 225 226 232 239 254
236 246 255 255 223 198 254 251 249 263 259 273 286 288 280 275 265 247 112 108 119 140 161 158 184 218 206 206 213 220 223 193 191 207 181 167 190 197 179 166 155 146 154 171 191 177 163 168 172 173 176 165 159 173 191 196 190 191 193 194 198 201 204 205 199 199 208 203 192 195 195 189 192 198 196 195 192 192 201 204 203 203 210 217 211 209 221 223 225 231 239 238 224 223 230 236 247
213 225 236 252 233 200 243 244 243 258 257 255 245 195 256 256 256 85 82 83 117 146 146 149 172 206 200 208 209 204 227 237 201 200 191 179 184 185 173 162 155 147 151 169 192 191 172 170 175 175 174 171 167 170 179 188 192 194 196 200 203 204 206 206 202 199 202 206 199 197 195 190 195 204 200 197 198 201 205 206 206 204 210 220 217 213 219 221 222 227 232 234 229 230 232 234 241
200 220 230 243 247 226 234 235 238 236 234 290 166 169 243 259 219 109 111 107 105 122 132 145 171 200 186 217 228 193 184 232 224 191 195 202 178 165 160 151 152 150 151 164 182 190 176 169 175 174 173 174 174 174 178 181 185 189 195 203 206 206 206 207 204 200 200 206 204 200 199 195 198 206 207 207 209 211 209 206 207 206 207 216 219 218 217 217 219 224 230 237 241 240 234 235 243
185 204 226 235 233 213 233 249 263 269 235 170 196 216 233 204 177 151 134 131 114 117 140 151 163 184 194 201 226 204 176 196 214 195 192 198 167 150 145 145 151 153 157 162 169 177 174 170 173 174 175 177 176 178 180 181 183 186 193 202 205 205 206 207 206 202 200 205 208 204 201 202 203 205 208 213 212 211 212 207 205 206 211 217 220 218 216 215 217 220 229 240 244 244 239 238 241
179 190 216 235 237 218 232 245 248 271 266 207 198 218 201 184 168 134 108 126 130 142 164 154 154 171 200 200 199 237 213 178 176 185 195 186 161 142 140 150 153 152 162 171 174 178 172 167 169 169 174 182 182 182 182 183 187 190 195 202 205 205 205 206 207 206 204 207 212 209 206 208 210 207 207 212 213 211 211 210 208 208 213 219 221 220 216 216 221 223 226 233 235 238 243 245 246
228 204 201 216 244 241 247 264 249 260 269 271 302 261 220 203 165 135 134 144 139 149 159 151 164 184 207 207 161 216 280 106 140 162 149 140 147 130 128 145 155 153 164 177 184 186 173 167 168 167 175 186 187 185 184 186 191 193 193 198 202 204 204 204 206 207 208 209 212 214 213 212 213 213 211 210 212 211 210 212 214 214 215 215 215 217 217 216 222 226 229 233 233 234 241 247 251
240 249 210 197 223 238 247 284 289 252 244 242 255 255 262 321 156 169 171 160 146 143 146 152 181 210 247 171 89 51 355 48 127 136 112 114 137 128 130 151 166 164 168 179 187 184 170 167 170 172 179 186 186 186 188 191 195 197 197 197 199 200 201 202 204 205 208 210 212 216 218 216 214 216 217 214 211 212 210 211 214 216 218 215 211 213 216 218 221 224 229 234 234 234 237 243 248
238 255 250 225 228 234 222 213 241 256 250 233 223 211 238 14 357 229 157 138 137 131 150 177 122 68 2 340 92 72 339 17 117 122 124 140 146 141 145 157 172 179 179 182 186 179 167 168 175 181 183 183 183 186 192 194 192 197 204 207 207 205 203 205 205 204 206 210 213 214 216 219 215 214 218 217 216 218 213 208 210 216 219 217 213 212 215 218 219 221 225 229 232 233 233 235 241
220 238 246 248 249 256 249 198 207 254 269 259 254 217 112 75 20 308 81 107 140 144 177 182 102 104 228 264 98 95 334 13 105 123 135 141 141 147 149 150 165 180 181 176 177 174 174 178 183 185 183 183 187 190 194 195 192 194 197 199 205 207 208 210 208 205 206 209 212 211 213 219 218 215 217 215 214 220 219 209 208 215 220 221 218 215 216 218 218 220 222 226 232 237 234 229 231
201 210 223 233 232 239 246 211 201 233 257 240 207 203 144 133 165 149 96 112 148 129 122 104 93 112 164 148 90 106 176 145 120 136 144 139 140 149 149 145 158 176 182 178 177 178 184 189 185 180 179 184 192 194 193 193 197 199 193 189 194 200 203 206 205 203 206 210 211 209 210 216 219 219 219 216 214 216 219 217 215 217 220 223 225 221 219 220 220 221 221 224 231 238 236 226 226
Height
767 768 767 769 769 771 771 775 789 786 786 788 774 776 773 760 760 764 767 766 770 767 758 757 756 757 764 770 774 773 774 777 782 791 800 790 784 789 789 792 793 794 796 797 799 801 801 802 804 805 806 806 807 808 809 810 811 812 812 813 813 814 814 815 816 817 819 819 821 822 823 824 824 825 826 827 828 829 830 832 832 833 834 835 835 836 837 838 839 839 839 840 840 840 841 841 842
767 768 767 769 769 776 780 779 793 790 783 787 779 776 769 760 762 767 766 764 767 762 755 754 755 758 760 763 766 772 777 773 773 779 783 782 785 789 789 793 793 795 796 797 799 801 803 803 805 806 806 807 808 809 810 811 812 812 813 814 814 815 815 815 816 817 819 819 820 821 823 824 825 826 827 828 829 830 831 832 833 834 835 835 836 837 838 839 839 840 840 840 840 841 841 842 842
768 768 767 771 770 776 781 785 797 790 785 791 784 769 762 765 765 763 759 759 759 753 754 755 758 760 762 769 770 777 783 774 771 775 780 784 785 788 791 792 793 796 797 799 801 802 803 804 805 806 806 807 808 809 810 811 812 813 814 814 815 815 816 816 816 817 819 820 820 821 822 823 825 826 828 829 830 831 832 833 834 835 836 836 837 838 839 839 840 840 841 841 841 841 842 843 843
768 769 768 770 774 779 782 790 790 780 786 787 782 769 760 765 761 758 753 753 753 751 757 758 764 761 764 777 775 776 782 776 773 775 781 784 784 787 790 791 794 796 798 800 801 803 804 804 805 806 807 808 809 810 810 811 813 814 815 815 816 816 817 816 816 818 819 820 820 821 822 823 824 826 828 829 831 832 833 834 835 835 836 837 837 838 839 839 840 841 841 841 841 842 843 843 844
768 771 769 770 779 782 782 790 780 773 782 779 780 771 758 759 756 755 750 749 750 753 758 760 769 764 763 772 771 777 780 776 775 775 779 783 785 788 789 791 793 795 799 800 801 803 804 805 806 806 807 809 810 811 811 812 813 814 815 816 816 817 817 817 817 818 819 821 821 822 822 824 825 826 827 829 830 831 833 834 835 835 836 837 837 838 839 839 840 841 841 841 842 843 844 844 845
768 769 767 771 775 774 784 793 782 774 771 766 775 768 756 755 752 752 750 749 748 752 757 760 767 767 770 769 765 772 773 774 776 776 779 783 786 788 790 791 794 797 799 800 802 803 804 806 806 807 808 809 811 811 812 813 814 815 816 817 817 818 819 819 819 819 819 820 822 823 823 825 826 827 828 829 830 831 833 833 834 835 835 836 837 838 838 839 840 841 842 842 843 843 844 845 846
767 771 772 779 775 772 787 788 779 776 764 757 765 763 756 752 748 750 751 752 753 753 757 760 759 767 778 771 769 770 767 771 773 777 780 782 786 787 790 792 795 797 799 801 802 803 805 806 806 808 808 810 811 812 813 814 815 816 817 817 818 818 820 820 820 820 820 821 822 824 824 825 826 827 828 829 830 831 832 833 834 834 835 836 837 838 839 840 841 842 842 843 843 844 845 846 846
767 771 773 783 783 780 787 778 773 773 762 754 755 757 754 750 748 751 753 755 757 755 757 759 757 771 780 770 777 775 768 772 771 777 780 782 786 788 791 792 795 797 799 801 802 804 805 807 807 808 809 811 812 813 814 815 816 817 818 818 819 820 820 821 822 822 822 822 822 823 825 825 827 828 829 830 831 832 833 834 835 835 836 837 838 839 839 840 841 842 843 843 844 845 846 846 847
766 770 772 781 786 785 783 776 774 768 761 758 756 755 752 748 748 750 754 754 754 755 757 757 759 776 780 773 780 775 770 773 773 777 780 784 786 788 792 793 795 797 800 801 803 805 806 808 808 809 810 812 813 814 815 816 817 818 819 819 819 820 821 821 822 823 824 823 823 823 824 825 827 828 829 831 832 833 834 835 836 837 837 838 839 839 840 840 841 842 843 844 844 845 846 847 848
766 770 775 782 787 788 787 781 776 768 762 759 757 754 751 748 747 748 752 754 752 756 758 755 761 774 778 778 780 772 771 773 773 778 780 785 787 789 792 793 795 797 801 802 804 805 806 808 808 810 811 813 814 814 815 816 817 818 819 819 820 821 821 822 822 823 825 825 825 825 825 826 827 828 830 831 832 833 834 835 836 837 837 838 839 839 840 841 842 842 843 844 845 846 847 848 848
774 772 773 786 790 791 793 787 777 769 763 759 758 753 748 746 747 750 751 754 751 755 758 759 768 772 773 778 778 770 770 772 774 778 780 786 789 789 792 794 796 798 801 803 804 805 806 809 809 810 812 814 814 814 816 816 818 819 819 820 821 822 822 822 822 823 824 826 826 827 827 827 828 829 830 831 832 832 833 835 836 836 837 838 839 840 841 841 842 843 844 844 845 846 847 848 848
783 780 777 792 793 785 781 780 776 770 765 763 763 754 746 745 749 752 751 754 753 755 757 761 766 764 774 780 774 768 769 772 773 777 780 785 789 790 793 795 797 799 801 802 804 805 807 809 810 811 813 814 815 815 816 817 819 819 820 821 821 823 823 823 823 823 824 825 827 828 829 829 830 830 831 832 833 833 834 835 836 837 837 839 840 841 842 842 842 843 844 845 846 847 848 848 848
783 782 784 791 785 780 774 773 775 772 770 766 763 753 746 749 752 750 750 752 753 759 756 755 757 759 775 779 769 769 770 771 772 776 779 783 788 792 794 796 798 800 801 803 804 806 807 809 810 811 813 815 816 817 817 818 819 820 821 821 822 823 824 824 824 825 825 826 827 828 829 830 831 832 833 833 834 834 835 836 836 838 838 840 841 841 842 842 843 844 845 845 846 847 848 848 848
779 779 786 791 781 777 773 775 776 775 776 765 758 753 748 752 751 747 749 755 756 756 750 745 751 762 774 776 774 773 771 772 773 776 778 783 788 793 796 796 799 800 802 803 804 806 808 808 810 812 814 816 817 818 819 819 820 821 822 822 823 824 824 825 825 826 827 827 827 828 829 830 831 832 833 834 834 835 835 836 837 838 839 840 841 841 842 842 843 844 845 845 846 847 848 848 848
774 778 783 791 787 777 771 775 773 775 776 763 757 753 752 751 746 749 749 755 756 744 741 742 745 762 772 776 780 771 768 772 773 776 779 783 788 794 797 797 800 801 803 804 805 807 808 809 810 812 814 816 817 818 819 820 821 821 822 823 824 825 825 826 827 827 828 828 829 829 830 830 832 832 833 834 835 836 836 837 837 838 839 840 841 841 842 843 844 844 845 845 846 847 848 848 848
769 776 784 792 793 785 775 770 767 775 773 760 755 751 757 754 745 753 746 743 752 740 741 746 744 756 764 767 770 763 766 771 772 775 778 782 787 793 795 797 801 801 804 805 806 808 808 810 810 813 814 816 818 819 820 820 821 822 823 824 824 826 826 827 827 828 829 829 830 830 831 832 833 833 834 835 835 836 837 838 838 839 839 840 841 841 842 843 844 844 845 845 846 847 848 848 848
769 777 789 795 794 790 780 771 770 774 769 759 755 752 763 762 749 748 738 736 750 746 744 746 743 750 755 757 760 761 766 769 771 774 777 783 786 791 795 797 801 803 806 806 807 808 808 810 811 813 814 816 818 819 820 821 821 822 823 824 825 826 827 828 828 829 830 830 831 831 832 833 834 834 835 836 836 837 837 838 839 839 840 840 841 841 842 843 844 844 845 845 846 847 847 848 848
776 783 791 794 793 787 780 775 769 765 764 761 757 755 762 766 757 747 741 745 749 750 751 748 746 749 752 755 758 762 766 768 771 774 777 782 785 788 793 798 802 804 806 806 806 807 808 810 811 813 814 816 818 819 820 820 822 822 823 825 826 827 827 829 829 830 831 831 832 832 833 833 834 835 835 836 837 837 838 839 839 840 840 840 841 842 842 843 844 844 845 845 846 847 847 847 847
779 784 788 791 790 782 777 776 768 761 762 760 757 755 758 761 757 748 753 758 752 758 761 755 756 756 755 757 760 763 765 767 770 773 776 780 783 786 790 796 803 804 803 803 805 806 808 810 811 813 814 816 817 818 819 820 821 822 823 825 826 827 828 829 830 831 832 833 833 833 834 834 835 835 835 837 837 838 838 839 840 840 841 841 841 842 843 843 844 844 845 845 846 846 847 846 847
775 780 788 788 784 780 775 776 773 764 757 758 759 755 757 757 751 751 757 760 757 764 766 762 766 764 761 759 760 763 765 767 769 771 774 778 782 785 789 793 799 801 801 802 804 806 808 809 811 813 814 815 816 817 819 820 821 822 823 824 826 827 828 829 830 831 832 833 834 834 835 835 836 836 836 837 838 839 839 839 840 840 841 841 842 842 843 843 844 844 844 845 845 846 846 845 846
775 779 789 786 781 783 777 777 780 770 759 758 758 757 760 755 751 754 759 766 767 762 759 761 764 763 762 761 760 762 764 766 768 770 773 776 780 783 787 790 795 798 799 801 804 805 807 809 810 812 813 814 816 817 818 820 820 822 823 824 826 827 829 830 830 831 832 833 834 835 835 835 836 837 837 838 838 839 839 840 840 840 841 841 842 842 843 843 843 844 844 845 845 845 845 844 844
778 780 783 782 781 783 776 775 777 769 762 760 760 766 764 756 757 759 762 772 769 756 752 754 757 758 759 760 759 761 763 765 767 769 772 774 777 780 784 788 792 796 798 800 803 805 806 808 809 811 813 814 815 816 817 819 820 821 823 823 825 827 829 830 831 832 832 833 834 835 835 836 837 837 837 838 839 839 840 840 840 841 841 841 841 842 843 843 843 844 844 844 844 844 843 843 844
783 784 776 777 778 779 777 776 770 762 765 768 768 769 764 764 769 764 763 767 757 746 746 749 752 753 755 757 758 761 763 765 766 768 771 772 775 778 780 785 790 794 797 799 802 804 805 807 809 810 812 813 814 816 817 819 820 821 823 824 825 827 828 829 831 832 832 833 834 834 835 836 836 837 837 838 839 840 840 840 841 841 841 841 841 841 843 843 843 843 844 844 844 843 843 843 844
784 789 778 774 774 774 776 775 766 762 770 772 769 770 771 775 774 768 765 759 749 744 744 747 750 751 754 757 758 761 762 763 765 767 770 771 774 777 778 782 788 792 795 798 801 803 805 807 808 809 811 812 814 815 817 818 819 821 823 824 825 827 828 829 831 832 833 833 833 834 834 835 836 836 837 837 838 839 840 840 841 841 841 841 841 841 843 843 843 843 844 843 843 843 843 844 844
777 783 779 773 773 770 769 769 766 768 772 773 773 779 783 776 770 770 766 756 749 746 745 747 750 752 755 758 758 760 761 762 764 766 769 771 773 775 778 781 786 790 793 796 799 802 805 807 807 808 810 811 813 814 816 817 818 821 823 824 825 826 827 829 830 831 833 833 833 833 834 835 835 836 836 837 838 838 839 840 840 841 841 841 841 841 842 843 843 843 844 843 842 842 843 844 843
771 773 775 773 773 768 767 767 767 772 774 776 783 786 784 773 768 771 764 755 750 747 749 750 752 755 757 758 759 760 761 762 763 766 768 770 773 775 777 780 784 788 791 794 797 800 803 806 807 808 809 810 812 813 815 817 818 820 822 824 825 826 827 828 829 830 832 832 833 833 833 834 835 835 835 836 837 837 838 839 839 840 841 841 840 841 842 842 842 843 843 843 842 842 842 842 842
762 767 771 771 771 766 766 769 768 772 773 776 783 786 780 770 774 779 765 754 751 751 753 752 754 758 758 758 758 759 761 761 763 765 767 769 772 774 776 779 782 785 789 792 795 798 801 804 806 807 809 810 812 814 815 816 817 819 821 822 824 826 827 828 828 829 830 831 831 832 832 833 834 834 834 835 836 837 838 838 839 840 840 840 840 841 842 841 841 842 843 843 843 842 841 842 842
759 766 772 770 770 768 767 770 769 771 774 773 776 783 781 776 781 780 765 755 753 756 757 754 756 758 757 758 758 759 760 761 763 764 766 769 771 773 775 777 780 784 787 790 794 797 800 802 805 806 807 809 813 815 815 815 816 818 820 822 823 825 827 828 828 828 828 829 830 831 832 832 833 833 834 835 836 836 837 838 839 839 840 840 840 841 841 841 841 842 842 842 843 843 842 842 842
762 765 776 775 771 775 771 771 770 771 776 770 771 786 788 784 782 772 763 758 756 759 760 757 758 758 758 758 759 760 759 761 763 764 766 768 771 773 775 777 779 782 785 788 793 796 799 801 803 805 805 807 811 813 814 815 816 817 819 821 823 825 827 827 827 827 827 828 829 830 831 831 831 832 833 835 836 836 837 837 838 839 839 840 840 841 842 842 841 841 842 842 842 843 842 842 842
768 768 775 777 783 785 772 770 770 771 775 765 773 799 797 784 777 768 763 761 763 767 764 760 759 759 759 759 760 761 760 762 762 764 767 768 771 772 773 776 778 781 784 787 791 793 797 800 803 805 806 807 809 812 813 815 817 818 819 820 822 824 826 826 826 826 827 828 829 830 831 831 831 831 833 834 835 836 837 837 838 839 840 841 841 841 842 842 841 842 842 843 843 843 842 842 842
773 777 775 775 793 793 770 768 772 775 775 763 777 806 800 781 773 768 764 764 769 773 770 767 762 759 760 760 761 762 760 761 762 764 767 768 770 771 773 776 777 781 783 786 789 792 795 799 802 804 806 808 810 812 813 815 817 818 820 821 823 824 825 825 825 826 827 828 829 829 830 830 831 832 833 834 835 836 838 838 838 839 840 840 841 841 842 842 842 842 842 843 843 842 842 842 841
777 791 788 774 784 789 774 767 768 776 774 763 779 800 795 780 772 767 766 769 774 778 777 774 766 759 760 761 761 763 762 761 762 763 766 768 770 771 773 775 777 780 782 785 788 791 794 797 801 804 806 809 810 812 814 815 817 819 821 823 824 825 825 825 825 826 828 828 829 829 830 831 831 832 833 834 835 836 838 838 838 839 840 840 841 841 841 841 841 841 841 842 842 842 841 841 840
784 791 793 780 777 780 779 772 762 768 773 769 778 790 790 781 771 767 769 773 777 783 782 773 767 762 759 761 761 763 764 762 762 762 765 768 770 771 773 775 777 779 782 785 788 791 794 797 800 803 805 808 810 813 815 816 818 820 822 823 824 825 825 825 825 826 827 828 829 830 831 832 832 833 834 835 836 837 837 838 839 839 840 841 841 841 841 841 841 841 841 841 841 841 841 840 840
790 786 786 782 776 772 779 781 765 763 773 775 775 781 784 778 770 769 772 775 776 781 780 771 769 766 760 760 762 764 765 765 764 763 765 768 769 771 773 775 777 779 781 784 787 791 794 797 799 802 804 807 810 812 814 816 818 820 821 823 824 824 824 824 824 825 826 827 828 830 830 832 833 834 835 836 836 837 837 838 839 840 841 841 841 841 841 841 841 841 842 841 841 841 840 839 839
789 787 782 778 772 768 775 780 768 763 772 776 776 780 781 775 771 770 770 774 774 773 773 770 768 767 761 760 764 765 764 765 766 764 765 768 770 772 772 774 777 778 780 783 787 790 793 796 798 801 804 806 809 811 813 815 817 819 820 822 823 823 823 823 824 825 826 827 827 829 830 832 833 834 835 836 836 837 837 838 839 840 841 841 841 841 841 841 841 841 842 842 841 841 840 839 839
773 772 769 770 770 767 764 766 762 759 771 777 776 779 779 776 774 771 769 770 772 771 769 768 769 766 761 761 764 765 764 765 765 763 766 768 769 772 772 774 776 777 780 782 786 789 792 795 797 800 802 805 808 810 812 814 816 818 818 820 821 821 822 822 824 825 825 826 827 828 829 831 833 834 835 836 836 837 838 839 839 840 841 840 841 841 842 842 842 842 842 842 842 841 840 839 839
757 758 761 765 767 765 755 756 755 750 767 777 771 773 775 773 772 767 767 770 771 773 771 769 769 767 763 762 764 766 765 764 764 764 766 768 768 770 772 773 775 777 780 782 785 789 791 794 797 799 801 804 806 808 811 812 814 816 817 818 819 820 820 821 822 824 825 826 827 827 829 831 832 833 834 835 836 837 838 839 840 840 840 840 841 842 842 843 843 843 843 842 842 842 841 840 840
749 754 760 763 761 758 750 752 750 746 763 773 767 773 773 767 767 763 763 769 771 770 770 770 767 766 763 761 763 765 765 763 763 765 765 767 768 769 771 773 775 777 779 782 784 788 791 793 796 798 801 803 805 807 809 811 813 814 816 817 818 819 819 820 822 823 824 826 827 827 828 830 831 832 834 835 836 837 838 839 840 840 840 840 842 843 843 843 843 843 843 843 842 842 842 842 841
748 751 757 763 755 751 750 749 747 747 760 766 762 768 770 764 762 761 761 763 766 765 764 765 765 765 764 762 762 763 765 765 764 765 765 766 766 767 769 772 775 777 779 781 784 787 790 792 795 798 800 802 805 807 808 810 812 814 815 816 817 818 818 820 821 822 824 825 826 827 828 829 831 832 834 834 836 837 838 839 839 840 841 841 842 842 842 843 843 843 843 843 842 842 842 843 843
750 751 756 760 751 752 758 754 750 749 754 758 757 759 764 765 761 760 759 756 756 759 758 759 760 761 763 763 761 760 764 767 764 763 764 764 765 766 768 771 774 776 778 780 783 786 789 792 794 797 800 802 804 806 808 810 811 812 814 814 815 817 818 819 820 822 823 824 825 827 828 829 831 832 834 835 836 837 838 839 839 839 840 841 841 842 842 843 843 843 843 843 842 843 843 843 843
750 746 750 754 747 746 751 752 753 751 750 751 757 765 765 765 767 763 757 754 754 755 756 758 757 758 762 764 760 757 759 763 763 763 763 761 763 766 767 769 773 775 777 779 782 784 787 791 794 796 799 801 803 805 806 808 809 810 812 814 815 816 817 817 819 821 821 822 824 826 828 829 830 832 834 835 836 837 838 839 839 839 840 841 842 842 843 843 843 843 843 843 843 843 843 843 843
749 736 735 743 743 740 741 746 752 758 763 753 756 779 776 760 765 765 757 758 758 756 756 757 757 757 760 762 760 757 757 758 760 760 761 761 763 765 766 767 771 774 776 778 781 784 786 790 793 796 798 800 802 803 804 806 807 809 811 813 814 814 816 816 817 819 820 821 823 825 827 828 830 831 833 834 835 836 838 839 839 840 841 842 843 843 843 842 843 843 843 843 843 843 843 843 843
754 732 721 730 734 734 735 738 745 757 765 751 749 778 780 759 761 763 757 760 760 757 759 756 755 754 754 756 759 759 757 757 758 758 759 761 763 764 765 766 769 772 774 777 781 783 785 790 793 795 798 799 799 800 802 805 806 807 809 811 813 814 815 815 816 818 819 820 822 824 826 827 829 830 831 833 834 835 837 838 840 841 842 843 843 842 842 842 842 842 842 842 842 842 843 843 843
750 726 717 725 727 732 734 735 742 745 748 747 742 757 774 770 766 760 755 761 761 759 760 755 752 751 750 752 755 756 755 755 756 757 758 760 760 762 764 765 767 770 774 777 781 783 785 789 792 794 797 797 796 798 800 803 805 806 808 810 811 813 814 815 815 817 818 819 821 822 824 826 827 828 830 831 832 834 835 837 838 840 841 842 841 841 841 841 841 841 841 841 841 841 842 843 843
737 717 717 721 720 729 733 736 744 741 748 762 748 745 774 781 766 756 753 758 762 760 757 754 750 748 748 751 752 751 752 753 753 754 756 757 757 759 761 763 765 769 773 776 780 783 785 788 791 794 797 797 795 797 800 802 804 805 807 809 810 812 813 814 815 816 817 818 819 821 822 824 826 827 829 830 831 833 834 835 836 838 839 840 840 840 840 840 839 840 840 840 840 840 841 842 842
723 711 718 722 723 729 734 739 743 744 757 769 754 748 774 782 762 753 754 756 760 757 752 750 748 746 745 746 748 751 752 751 750 751 753 754 755 757 759 762 764 767 770 774 778 781 784 787 790 793 795 796 796 797 800 802 803 805 806 808 809 811 813 813 815 815 815 817 818 819 821 822 824 826 828 829 830 831 832 834 835 836 837 838 838 838 839 839 839 839 839 839 840 840 840 841 841
714 715 726 735 735 734 738 740 743 761 774 766 752 747 765 781 765 746 744 746 750 751 749 749 747 745 745 743 743 748 751 750 749 749 749 751 754 757 759 761 764 767 769 772 776 779 783 785 788 791 793 796 797 797 798 801 803 804 805 807 808 810 811 812 813 813 814 816 817 818 820 821 823 825 826 828 829 831 831 832 834 835 835 836 837 837 837 838 838 838 838 838 839 839 840 840 841
718 728 737 747 748 743 750 750 755 782 787 762 745 737 751 778 767 739 732 733 738 745 748 751 750 747 746 744 741 740 742 746 748 748 748 750 754 756 758 761 764 767 768 771 775 778 781 784 786 788 791 796 798 796 797 799 801 803 804 805 807 808 809 810 811 812 813 814 816 817 819 820 822 823 825 826 828 830 830 831 832 833 833 834 835 835 836 836 837 837 837 837 838 839 839 840 840
728 737 746 760 766 770 781 779 777 787 780 756 745 744 756 768 752 732 730 732 736 740 741 745 748 746 745 743 742 739 737 739 743 745 747 750 753 753 756 761 763 767 769 772 776 778 780 782 783 786 790 795 798 797 797 798 799 801 803 804 805 806 807 808 810 810 811 813 815 816 817 819 821 822 824 825 826 828 828 829 830 831 831 832 833 834 835 835 835 836 836 836 837 838 838 838 839
737 743 753 766 773 789 805 797 789 787 772 750 740 751 768 764 742 729 731 733 733 733 735 738 740 741 742 739 738 739 738 737 739 741 745 749 751 751 754 759 763 767 769 771 775 777 779 780 782 785 788 792 795 797 797 797 798 800 802 802 803 805 806 807 809 809 810 812 814 815 815 817 819 821 822 823 825 826 826 827 828 829 830 830 831 832 833 833 834 835 835 836 836 837 837 837 838
733 732 741 756 759 778 797 791 786 780 767 754 750 761 773 765 745 730 728 729 728 731 734 736 738 738 738 737 735 736 738 739 739 740 744 747 748 750 753 757 762 766 768 771 773 776 777 779 781 783 786 789 792 794 796 797 798 799 800 801 801 803 804 805 807 808 809 811 813 813 814 815 817 819 820 822 823 824 825 825 826 827 828 829 829 830 831 832 833 834 834 835 835 836 836 836 837
726 720 736 750 741 749 767 765 757 756 760 762 761 763 755 743 732 720 721 727 727 731 732 733 739 737 735 737 734 733 736 739 738 736 742 745 744 747 752 756 761 764 767 769 772 774 776 778 780 782 784 786 789 792 794 795 797 798 799 800 800 801 802 804 805 807 808 810 812 812 812 814 816 817 818 820 821 822 823 823 824 825 826 826 827 829 830 831 831 832 833 833 834 835 835 835 836
725 727 741 735 716 726 753 755 741 745 765 762 752 754 744 735 735 725 723 732 732 734 733 732 736 735 735 735 733 732 731 734 739 739 744 746 742 746 752 754 758 761 765 768 770 773 775 776 779 781 782 784 786 790 792 793 795 796 797 799 799 799 800 801 803 805 807 808 809 810 811 813 814 815 816 817 818 819 820 822 822 823 823 824 826 827 828 829 830 831 832 833 833 833 834 834 834
726 735 730 717 715 722 738 754 755 761 777 764 748 754 751 750 756 740 732 739 739 737 735 734 735 735 736 733 731 732 727 731 740 742 743 745 742 745 750 752 755 758 763 766 769 772 774 775 776 779 780 781 784 787 789 791 792 794 796 798 799 799 798 799 801 803 805 806 806 808 810 812 813 814 814 815 816 817 817 819 820 821 822 822 824 825 826 827 828 829 830 831 832 832 832 832 833
713 717 706 713 739 745 741 756 769 774 782 773 757 755 753 756 757 744 739 743 740 739 738 737 737 736 737 733 732 733 730 731 739 740 741 742 742 746 749 752 754 757 762 765 768 770 772 773 775 777 779 780 782 785 787 789 790 791 794 795 796 797 797 797 799 801 802 802 804 806 808 810 811 812 812 812 813 814 815 816 818 819 820 821 822 823 824 825 826 828 829 829 830 830 831 831 832
707 708 704 706 724 737 738 745 755 764 773 771 765 765 765 760 749 739 739 739 737 741 741 739 740 740 740 737 734 735 734 734 737 740 741 742 743 746 750 754 756 758 762 764 766 768 770 773 775 777 779 780 782 784 785 787 788 789 791 792 793 793 794 795 796 798 800 801 803 805 807 808 809 810 810 810 811 812 813 814 815 817 818 818 820 821 822 823 824 825 826 827 828 828 829 829 830
721 726 726 721 719 723 728 732 737 748 762 766 772 782 774 752 738 735 736 736 735 739 739 738 740 742 741 737 735 736 736 736 738 741 741 741 743 747 751 756 758 758 761 763 765 768 770 772 775 776 778 779 781 783 784 785 786 788 789 790 792 793 793 794 796 798 800 801 802 804 805 807 807 807 808 808 810 810 811 812 813 815 816 816 817 818 820 821 822 823 824 825 826 826 827 827 828
718 726 728 728 726 728 742 749 736 732 745 754 768 787 771 738 729 732 733 735 734 733 735 737 740 741 739 737 736 738 737 737 738 740 742 743 744 747 751 756 759 760 761 763 765 767 769 771 773 774 776 777 779 780 782 783 784 786 788 789 792 794 794 795 796 798 800 801 801 802 803 804 804 805 805 806 807 808 809 811 811 813 813 814 815 816 817 818 819 820 821 823 824 824 825 826 826